Location: Lafig�re
(44.4503°N, 4.0357°E)
Time: 17:42:02
(UTC+00:00)

deb Explorer IX - Pass Details

Date: 22 January 2021
Orbit: 537 x 1102 km, 38.8° (Epoch: 04 March)

Event Time Altitude Azimuth Distance (km) Brightness Sun altitude
Rises 17:06:35 0° 215° (SW) 3,705 ? -5.2°
Reaches altitude 10° 17:10:00 10° 200° (SSW) 2,665 ? -5.8°
Maximum altitude 17:14:37 21° 154° (SSE) 1,848 ? -6.6°
Drops below altitude 10° 17:18:48 10° 106° (ESE) 2,377 ? -7.3°
Enters shadow 17:20:07 - 98° (E) 2,731 ? -7.5°
Sets 17:21:39 0° 91° (E) 3,201 - -7.7°
